Location: Ferchesar
(52.6477°N, 12.4298°E)
Time: 21:33:45
(UTC+02:00)

Transit 4A - Pass Details

Date: 05 March 2021
Orbit: 868 x 976 km, 66.8° (Epoch: 10 April)

Event Time Altitude Azimuth Distance (km) Brightness Sun altitude
Rises 12:30:23 0° 258° (WSW) 3,656 11.2 31.5°
Reaches altitude 10° 12:33:14 10° 267° (W) 2,701 10.5 31.4°
Maximum altitude 12:38:53 33° 331° (NNW) 1,534 8.9 31.4°
Drops below altitude 10° 12:44:27 10° 35° (NE) 2,648 9.9 31.3°
Sets 12:47:14 0° 45° (NE) 3,576 10.5 31.2°
